KD5OH Weather Reports


Display with metric or nautical units.
time (UTC)temp
F
wind
direction
speed
MPH
gust
MPH
rain 1hr
in
rain 24hr
in
rain mn
in
humidity
%
barometer
mb
20260509223135 91 232 3.0 11.0 0.00 0.00 0.00 9 1013.0
20260509221625 90 54 4.0 7.0 0.00 0.00 0.00 9 1013.3
20260509220137 91 197 2.0 6.0 0.00 0.00 0.00 9 1013.5
20260509214630 90 262 1.0 10.0 0.00 0.00 0.00 9 1013.8
20260509213200 90 190 3.0 13.0 0.00 0.00 0.00 9 1014.1
20260509211633 90 220 1.0 10.0 0.00 0.00 0.00 9 1014.3
20260509210122 90 213 2.0 5.0 0.00 0.00 0.00 9 1014.4
20260509204636 89 234 5.0 9.0 0.00 0.00 0.00 9 1014.8
20260509203125 89 240 7.0 11.0 0.00 0.00 0.00 9 1015.2
20260509201633 89 256 1.0 9.0 0.00 0.00 0.00 9 1015.3
20260509200126 87 291 2.0 9.0 0.00 0.00 0.00 9 1015.4
20260509194635 87 257 2.0 8.0 0.00 0.00 0.00 9 1015.6
20260509193145 87 220 4.0 7.0 0.00 0.00 0.00 10 1015.8
20260509191639 86 206 7.0 11.0 0.00 0.00 0.00 10 1016.1
20260509190130 87 243 3.0 9.0 0.00 0.00 0.00 12 1016.2
20260509184624 86 160 4.0 8.0 0.00 0.00 0.00 12 1016.5
20260509183134 85 134 1.0 5.0 0.00 0.00 0.00 13 1016.7
20260509181626 84 15 1.0 6.0 0.00 0.00 0.00 12 1017.0
20260509180137 82 218 3.0 8.0 0.00 0.00 0.00 13 1017.1
20260509174626 81 164 4.0 8.0 0.00 0.00 0.00 14 1017.3
20260509173139 81 252 2.0 6.0 0.00 0.00 0.00 14 1017.4
20260509171648 80 299 1.0 6.0 0.00 0.00 0.00 15 1017.4
20260509170138 80 233 0.0 4.0 0.00 0.00 0.00 15 1017.4
20260509164630 79 232 3.0 10.0 0.00 0.00 0.00 16 1017.4
20260509163122 77 93 3.0 4.0 0.00 0.00 0.00 17 1017.5
20260509161635 77 73 1.0 4.0 0.00 0.00 0.00 17 1017.5
20260509160146 75 284 1.0 6.0 0.00 0.00 0.00 19 1017.6
20260509154621 73 40 2.0 5.0 0.00 0.00 0.00 20 1017.5
20260509153134 72 60 3.0 5.0 0.00 0.00 0.00 20 1017.6
20260509151623 71 304 2.0 4.0 0.00 0.00 0.00 23 1017.6
20260509150140 68 289 3.0 5.0 0.00 0.00 0.00 23 1017.6
20260509144631 67 300 3.0 5.0 0.00 0.00 0.00 25 1017.7
20260509143126 66 312 2.0 7.0 0.00 0.00 0.00 27 1017.8
20260509141637 63 282 2.0 7.0 0.00 0.00 0.00 28 1017.8
20260509140131 60 296 4.0 7.0 0.00 0.00 0.00 28 1017.7
20260509134625 57 308 3.0 5.0 0.00 0.00 0.00 31 1017.5
20260509133136 55 286 2.0 4.0 0.00 0.00 0.00 34 1017.5
20260509131654 53 284 0.0 2.0 0.00 0.00 0.00 36 1017.2
20260509130126 49 293 1.0 1.0 0.00 0.00 0.00 40 1016.8
20260509124623 46 257 0.0 1.0 0.00 0.00 0.00 43 1016.7
20260509123136 46 90 0.0 1.0 0.00 0.00 0.00 43 1016.4
20260509121630 47 260 0.0 0.0 0.00 0.00 0.00 42 1015.9
20260509120125 49 113 1.0 1.0 0.00 0.00 0.00 37 1015.6
20260509114638 51 12 0.0 0.0 0.00 0.00 0.00 36 1015.6
20260509113155 51 12 0.0 1.0 0.00 0.00 0.00 35 1015.9
20260509111623 51 19 0.0 2.0 0.00 0.00 0.00 35 1015.8
20260509110133 50 14 1.0 3.0 0.00 0.00 0.00 36 1015.8
20260509104628 51 357 1.0 3.0 0.00 0.00 0.00 36 1015.8
20260509103139 50 4 3.0 4.0 0.00 0.00 0.00 37 1015.6
20260509101654 50 13 2.0 3.0 0.00 0.00 0.00 38 1015.4
20260509100123 51 348 1.0 5.0 0.00 0.00 0.00 37 1015.3
20260509094633 51 349 2.0 3.0 0.00 0.00 0.00 36 1015.0
20260509093125 53 260 1.0 3.0 0.00 0.00 0.00 34 1014.9
20260509091635 57 263 0.0 7.0 0.00 0.00 0.00 29 1014.7
20260509090130 60 199 0.0 1.0 0.00 0.00 0.00 25 1014.6
20260509084640 61 206 1.0 2.0 0.00 0.00 0.00 23 1014.6
20260509083133 64 148 2.0 5.0 0.00 0.00 0.00 20 1014.5
20260509081623 60 120 1.0 4.0 0.00 0.00 0.00 24 1014.4
20260509080134 58 161 1.0 3.0 0.00 0.00 0.00 27 1014.5
20260509074628 59 142 1.0 5.0 0.00 0.00 0.00 26 1014.6
20260509073137 59 142 1.0 4.0 0.00 0.00 0.00 27 1014.6
20260509071631 59 145 3.0 4.0 0.00 0.00 0.00 28 1014.7
20260509070202 56 160 2.0 3.0 0.00 0.00 0.00 31 1014.8
20260509064634 56 251 1.0 2.0 0.00 0.00 0.00 32 1014.9
20260509063126 56 271 2.0 5.0 0.00 0.00 0.00 32 1014.8
20260509061636 57 93 2.0 3.0 0.00 0.00 0.00 32 1014.8
20260509060151 56 163 0.0 3.0 0.00 0.00 0.00 33 1014.9
20260509054701 57 241 0.0 2.0 0.00 0.00 0.00 32 1014.9
20260509053151 58 272 0.0 1.0 0.00 0.00 0.00 28 1014.7
20260509051624 60 92 0.0 1.0 0.00 0.00 0.00 26 1014.7
20260509050156 62 93 1.0 1.0 0.00 0.00 0.00 25 1014.6
20260509044630 62 232 3.0 4.0 0.00 0.00 0.00 24 1014.6
20260509043140 67 233 0.0 1.0 0.00 0.00 0.00 17 1014.5
20260509041634 68 273 0.0 2.0 0.00 0.00 0.00 17 1014.4
20260509040125 71 66 4.0 7.0 0.00 0.00 0.00 15 1014.3
20260509034656 65 134 1.0 2.0 0.00 0.00 0.00 18 1014.1
20260509033127 65 47 0.0 0.0 0.00 0.00 0.00 18 1014.0
20260509031637 67 47 0.0 1.0 0.00 0.00 0.00 16 1013.8
20260509030133 69 47 0.0 1.0 0.00 0.00 0.00 15 1013.5
20260509024622 70 38 0.0 2.0 0.00 0.00 0.00 14 1013.4
20260509023133 71 39 1.0 2.0 0.00 0.00 0.00 13 1013.1
20260509021626 73 49 0.0 0.0 0.00 0.00 0.00 12 1013.3
20260509020138 75 279 0.0 1.0 0.00 0.00 0.00 11 1013.1
20260509014630 79 279 1.0 4.0 0.00 0.00 0.00 9 1012.6
20260509013140 82 272 3.0 8.0 0.00 0.00 0.00 9 1012.5
20260509011629 83 277 5.0 10.0 0.00 0.00 0.00 9 1012.6
20260509010142 84 266 7.0 12.0 0.00 0.00 0.00 9 1012.6
20260509004631 85 312 8.0 15.0 0.00 0.00 0.00 9 1012.4
20260509003125 85 271 6.0 14.0 0.00 0.00 0.00 9 1012.6
20260509001654 85 304 8.0 15.0 0.00 0.00 0.00 9 1012.5
20260509000124 86 289 8.0 13.0 0.00 0.00 0.00 9 1012.3
20260508234638 86 282 7.0 14.0 0.00 0.00 0.00 9 1012.5
20260508233129 86 273 7.0 16.0 0.00 0.00 0.00 9 1012.5
20260508231624 86 305 5.0 13.0 0.00 0.00 0.00 9 1012.5
20260508230136 86 335 10.0 15.0 0.00 0.00 0.00 9 1012.5
20260508224632 86 305 7.0 14.0 0.00 0.00 0.00 9 1012.5